{"data":{"norad_id":69778,"epoch":"2026-09-19T15:07:34.863168Z","epoch_age_seconds":100567,"freshness":"FRESH","line1":"1 69778U 26151R   26262.63026462 -.00000799  00000+0 -75861-4 0  9996","line2":"2 69778  51.9020 233.0391 0000731  96.1022 264.0024 14.79938079 12040","mean_motion":14.79938079,"eccentricity":7.31e-5,"inclination_deg":51.902,"raan_deg":233.0391,"arg_perigee_deg":96.1022,"mean_anomaly_deg":264.0024,"bstar":-7.5861e-5,"rev_number":1204,"period_min":97.301368241907,"perigee_km":629.00733637925,"apogee_km":630.0318557736,"semimajor_km":7007.6565960764,"source":"CELESTRAK","updated_at":"2026-09-20T09:00:25.092447Z"}}